Regional Weather Roundup
Issued by NWS Upton, NY

Current Version | Previous Version | Graphics & Text | Print | Product List | Glossary Off
Versions: 1 2 3 4 5 6 7 8 9 10 11 12 13 14 15 16 17 18 19 20 21 22 23 24 25 26 27 28 29 30 31 32 33 34 35 36 37 38 39 40 41 42 43 44 45 46 47 48 49 50

000
ASUS41 KOKX 301304
RWROKX

REGIONAL WEATHER ROUNDUP
NATIONAL WEATHER SERVICE NEW YORK NY
900 AM EDT SAT APR 30 2016

NOTE: "FAIR" INDICATES FEW OR NO CLOUDS BELOW 12,000 FEET WITH NO
SIGNIFICANT WEATHER AND/OR OBSTRUCTIONS TO VISIBILITY.

NYZ071-072-176-178-NJZ106-104-301400-
NEW YORK CITY METRO AREA


CITY           SKY/WX    TMP DP  RH WIND       PRES   REMARKS
CENTRAL PARK   CLOUDY    51  37  58 VRB3      30.24S
LAGUARDIA APRT CLOUDY    50  39  66 NE3       30.22R
KENNEDY INTL   CLOUDY    50  41  71 N8        30.23S
NEWARK/LIBERTY PTSUNNY   49  41  74 N7        30.22S
BRNX BOT. GARD   N/A     52  39  62 NW2       30.24S
TETERBORO      CLOUDY    50  40  68 CALM      30.22R
$$

NYZ177-179-078>081-301400-
LONG ISLAND NEW YORK

CITY           SKY/WX    TMP DP  RH WIND       PRES   REMARKS
FARMINGDALE    CLOUDY    49  39  68 NE9       30.22S
ISLIP          PTSUNNY   53  40  61 VRB5      30.21S
SHIRLEY        SUNNY     53  40  61 N6        30.21F
RIVERHEAD        N/A     50  43  76 E3        30.21F
WESTHAMPTON    SUNNY     52  39  61 N12       30.22F
EAST HAMPTON   FAIR      48  40  73 N5        30.21R
MONTAUK POINT    N/A     48  40  73 N9        30.22F
$$

NYZ052-065-067-301400-
HUDSON VALLEY

CITY           SKY/WX    TMP DP  RH WIND       PRES   REMARKS
WHITE PLAINS   PTSUNNY   48  41  76 NW6       30.21S
NEWBURGH       PTSUNNY   46  45  93 CALM      30.22S
MONTGOMERY     CLOUDY    48  43  82 VRB3      30.21S
POUGHKEEPSIE   MOSUNNY   50  43  77 CALM      30.21F
ALBANY         PTSUNNY   50  24  36 NE9       30.23F
$$

NJZ001-105-106-008-010-013-015-019>022-104-301400-
NEW JERSEY

CITY           SKY/WX    TMP DP  RH WIND       PRES   REMARKS
NEWARK/LIBERTY PTSUNNY   49  41  74 N7        30.22S
TETERBORO      CLOUDY    50  40  68 CALM      30.22R
CALDWELL       CLOUDY    50  40  68 NE3       30.23S
MORRISTOWN     CLOUDY    48  43  81 CALM      30.23R
SOMERVILLE     CLOUDY    50  41  71 CALM      30.22R
SUSSEX         CLOUDY    48  42  80 W3        30.22F
ANDOVER          N/A     47  40  76 NE3       30.22S
TRENTON        CLOUDY    49  42  77 NE5       30.22R
MILLVILLE      CLOUDY    49  42  77 NE10      30.20S
ATLANTIC CITY  CLOUDY    50  41  71 NE9       30.21R
WRIGHTSTOWN    NOT AVBL
TOMS RIVER     CLOUDY    48  39  71 N8        30.22S
BELMAR         CLOUDY    48  40  73 N7        30.23R
$$

PAZ047>061-062-071-301400-
EASTERN PENNSYLVANIA

CITY           SKY/WX    TMP DP  RH WIND       PRES   REMARKS
PHILADELPHIA   CLOUDY    51  39  63 NE8       30.23R
ALLENTOWN      CLOUDY    49  40  71 NE5       30.23R
SCRANTON       CLOUDY    46  40  79 CALM      30.21R
$$

CTZ002-004>006-009-010-012-RIZ004-006-007-MAZ004-011-015-301400-
SOUTHERN NEW ENGLAND
 IN CT

CITY           SKY/WX    TMP DP  RH WIND       PRES   REMARKS
BRADLEY INTL   MOSUNNY   53  39  59 NE8       30.19F
HARTFORD       SUNNY     52  41  66 NE5       30.21F
DANBURY        MOSUNNY   50  41  71 CALM      30.22S
WTRBRY/OXFORD  MOSUNNY   48  25  40 N6        30.21F
BRIDGEPORT     SUNNY     52  42  69 NE3       30.21F
MERIDEN        SUNNY     52  41  66 CALM      30.20F
NEW HAVEN      MOSUNNY   51  43  74 CALM      30.21F
CHESTER        FAIR      52  39  62 NE6       30.19F
GROTON         CLOUDY    50  41  71 N8        30.21F
WILLIMANTIC    CLOUDY    52  37  56 NE3       30.22F

 IN RI

CITY           SKY/WX    TMP DP  RH WIND       PRES   REMARKS
PROVIDENCE     MOSUNNY   53  30  41 VRB6      30.23F
BLOCK ISLAND   SUNNY     48  37  65 NE10      30.22F
WESTERLY       PTSUNNY   51  34  52 N6        30.22F

 IN MA

CITY           SKY/WX    TMP DP  RH WIND       PRES   REMARKS
BOSTON         SUNNY     52  30  43 SW6       30.24S
WORCESTER      CLOUDY    46  35  65 W7        30.21S
WESTFIELD      MOSUNNY   53  39  59 N7        30.20F
PROVINCETOWN   SUNNY     47  35  63 VRB5      30.25R
NANTUCKET      SUNNY     50  34  54 NE7       30.23R
$$

ANZ330-335-338-340-345-350-353-355-301400-
COASTAL MARINE OBSERVATIONS


STATION/POSITION TIME  SKY/WX   TEMP    WIND        PRES    VSBY  WAVE
                                AIR SEA DIR/SP/G                  HT/PER
                 (UTC)          (F)     (DEG/KT/KT) (MB)    (MI)  (FT/S)
NY HARB ENTRANCE 1150            47 51   20/ 12/ 14 1022.8          5/ 8
20S FIRE ISLAND  1150            47 48   20/ 12/ 16 1022.6          6/ 8
GREAT SOUTH BAY  1200            47 56  350/  6/ 10   N/A
23 SSW MONTAUK P 1150            46 47   10/ 14/ 17 1022.0          6/ 8
15 E BARNEGAT LI 1222               50                N/A           6/ 8
HUDSON CANYON    1150            47 48              1021.6          7/ 8
KINGS POINT      1200            48 53              1023.0
EXECUTION ROCKS  NOT AVBL
CENTRAL LI SOUND 1200            47      20/  6/  8   N/A           0
EASTERN LI SOUND 1200            47 47  350/  8/ 10   N/A
ROBBINS REEF     1200            48      10/  6/  7 1022.6
$$


>>>>>>>>>>>>>>>>>>>>>>>>>>>> KEY <<<<<<<<<<<<<<<<<<<<<<<<<<<
>                                                          <
>     SKY/WX - SKY CONDITION/PRESENT WEATHER               <
>     TMP    - TEMPERATURE IN FAHRENHEIT                   <
>     DP     - DEWPOINT IN FAHRENHEIT                      <
>     RH     - RELATIVE HUMIDITY IN PERCENT                <
>     WIND   - DIRECTION AND SPEED IN MPH                  <
>     PRES   - MEAN SEA LEVEL PRESSURE IN INCHES OF HG     <
>     WCI    - WIND CHILL INDEX                            <
>     VSB    - VISIBILITY IN MILES                         <
>     HX     - HEAT INDEX                                  <
>     TC     - TEMPERATURE IN CELSIUS                      <
>     VRB    - VARIABLE WIND DIRECTION                     <
>                                                          <
>>>>>>>>>>>>>>>>>>>>>>>>>>>> KEY <<<<<<<<<<<<<<<<<<<<<<<<<<<





USA.gov is the U.S. government's official web portal to all federal, state and local government web resources and services.